owner,sensor,date,latitude,longitude,vertical_datum,wind_speed,wind_to_direction,wind_speed_of_gust,qcFlag 
TCOON,ioos:station:TCOON:003:1,2014-12-01T00:00:00Z,26.8015,-97.4706,0.0,6.4,142.0,7.4,'11111222,11111222,11111222' 
TCOON,ioos:station:TCOON:003:1,2014-12-01T00:06:00Z,26.8015,-97.4706,0.0,6.6,143.0,7.8,'11111222,11111222,11111222' 
TCOON,ioos:station:TCOON:003:1,2014-12-01T00:12:00Z,26.8015,-97.4706,0.0,5.9,142.0,7.1,'11111222,11111222,11111222' 
TCOON,ioos:station:TCOON:003:1,2014-12-01T00:18:00Z,26.8015,-97.4706,0.0,6.1,140.0,6.9,'11111222,11111222,11111222' 
TCOON,ioos:station:TCOON:003:1,2014-12-01T00:24:00Z,26.8015,-97.4706,0.0,6.1,139.0,6.9,'11111222,11111222,11111222' 
TCOON,ioos:station:TCOON:003:1,2014-12-01T00:30:00Z,26.8015,-97.4706,0.0,5.5,138.0,6.7,'11111222,11111222,11111222' 
TCOON,ioos:station:TCOON:003:1,2014-12-01T00:36:00Z,26.8015,-97.4706,0.0,5.9,140.0,6.6,'11111222,11111222,11111222' 
TCOON,ioos:station:TCOON:003:1,2014-12-01T00:42:00Z,26.8015,-97.4706,0.0,5.7,139.0,6.6,'11111222,11111222,11111222' 
TCOON,ioos:station:TCOON:003:1,2014-12-01T00:48:00Z,26.8015,-97.4706,0.0,5.5,136.0,6.2,'11111222,11111222,11111222' 
TCOON,ioos:station:TCOON:003:1,2014-12-01T00:54:00Z,26.8015,-97.4706,0.0,5.6,136.0,6.2,'11111222,11111222,11111222' 
TCOON,ioos:station:TCOON:003:1,2014-12-01T01:00:00Z,26.8015,-97.4706,0.0,4.9,140.0,6.3,'11111222,11111222,11111222' 
TCOON,ioos:station:TCOON:003:1,2014-12-01T01:06:00Z,26.8015,-97.4706,0.0,5.5,141.0,6.3,'11111222,11111222,11111222' 
TCOON,ioos:station:TCOON:003:1,2014-12-01T01:12:00Z,26.8015,-97.4706,0.0,5.4,144.0,6.1,'11111222,11111222,11111222' 
TCOON,ioos:station:TCOON:003:1,2014-12-01T01:18:00Z,26.8015,-97.4706,0.0,5.5,145.0,6.2,'11111222,11111222,11111222' 
TCOON,ioos:station:TCOON:003:1,2014-12-01T01:24:00Z,26.8015,-97.4706,0.0,5.2,146.0,6.4,'11111222,11111222,11111222' 
TCOON,ioos:station:TCOON:003:1,2014-12-01T01:30:00Z,26.8015,-97.4706,0.0,5.4,147.0,6.2,'11111222,11111222,11111222' 
TCOON,ioos:station:TCOON:003:1,2014-12-01T01:36:00Z,26.8015,-97.4706,0.0,5.1,146.0,5.8,'11111222,11111222,11111222' 
TCOON,ioos:station:TCOON:003:1,2014-12-01T01:42:00Z,26.8015,-97.4706,0.0,5.6,143.0,6.2,'11111222,11111222,11111222' 
TCOON,ioos:station:TCOON:003:1,2014-12-01T01:48:00Z,26.8015,-97.4706,0.0,5.5,141.0,6.3,'11111222,11111222,11111222' 
TCOON,ioos:station:TCOON:003:1,2014-12-01T01:54:00Z,26.8015,-97.4706,0.0,5.7,142.0,6.6,'11111222,11111222,11111222' 
TCOON,ioos:station:TCOON:003:1,2014-12-01T02:00:00Z,26.8015,-97.4706,0.0,5.1,144.0,6.1,'11111222,11111222,11111222' 
TCOON,ioos:station:TCOON:003:1,2014-12-01T02:06:00Z,26.8015,-97.4706,0.0,4.8,144.0,5.8,'11111222,11111222,11111222' 
TCOON,ioos:station:TCOON:003:1,2014-12-01T02:12:00Z,26.8015,-97.4706,0.0,4.8,143.0,5.6,'11111222,11111222,11111222' 
TCOON,ioos:station:TCOON:003:1,2014-12-01T02:18:00Z,26.8015,-97.4706,0.0,4.8,143.0,5.6,'1111122,1111122,1111122' 
TCOON,ioos:station:TCOON:003:1,2014-12-01T02:24:00Z,26.8015,-97.4706,0.0,5.5,143.0,6.2,'11111222,11111222,11111222' 
TCOON,ioos:station:TCOON:003:1,2014-12-01T02:30:00Z,26.8015,-97.4706,0.0,5.9,142.0,6.7,'11111222,11111222,11111222' 
TCOON,ioos:station:TCOON:003:1,2014-12-01T02:36:00Z,26.8015,-97.4706,0.0,6.2,144.0,6.8,'11111222,11111222,11111222' 
TCOON,ioos:station:TCOON:003:1,2014-12-01T02:42:00Z,26.8015,-97.4706,0.0,5.9,146.0,6.7,'11111222,11111222,11111222' 
TCOON,ioos:station:TCOON:003:1,2014-12-01T02:48:00Z,26.8015,-97.4706,0.0,5.7,144.0,6.5,'11111222,11111222,11111222' 
TCOON,ioos:station:TCOON:003:1,2014-12-01T02:54:00Z,26.8015,-97.4706,0.0,5.6,145.0,6.3,'11111222,11111222,11111222' 
TCOON,ioos:station:TCOON:003:1,2014-12-01T03:00:00Z,26.8015,-97.4706,0.0,5.3,143.0,6.2,'11111222,11111222,11111222' 
TCOON,ioos:station:TCOON:003:1,2014-12-01T03:06:00Z,26.8015,-97.4706,0.0,5.6,141.0,6.4,'11111222,11111222,11111222' 
TCOON,ioos:station:TCOON:003:1,2014-12-01T03:12:00Z,26.8015,-97.4706,0.0,5.6,141.0,6.4,'1111122,1111122,1111122' 
TCOON,ioos:station:TCOON:003:1,2014-12-01T03:18:00Z,26.8015,-97.4706,0.0,5.2,144.0,6.0,'11111222,11111222,11111222' 
TCOON,ioos:station:TCOON:003:1,2014-12-01T03:24:00Z,26.8015,-97.4706,0.0,5.4,143.0,6.2,'11111222,11111222,11111222' 
TCOON,ioos:station:TCOON:003:1,2014-12-01T03:30:00Z,26.8015,-97.4706,0.0,5.4,143.0,6.4,'11111222,11111222,11111222' 
TCOON,ioos:station:TCOON:003:1,2014-12-01T03:36:00Z,26.8015,-97.4706,0.0,5.6,142.0,6.4,'11111222,11111222,11111222' 
TCOON,ioos:station:TCOON:003:1,2014-12-01T03:42:00Z,26.8015,-97.4706,0.0,5.5,142.0,6.6,'11111222,11111222,11111222' 
TCOON,ioos:station:TCOON:003:1,2014-12-01T03:48:00Z,26.8015,-97.4706,0.0,5.4,146.0,6.3,'11111222,11111222,11111222' 
TCOON,ioos:station:TCOON:003:1,2014-12-01T03:54:00Z,26.8015,-97.4706,0.0,5.7,145.0,6.1,'11111222,11111222,11111222' 
TCOON,ioos:station:TCOON:003:1,2014-12-01T04:00:00Z,26.8015,-97.4706,0.0,5.8,145.0,6.5,'11111222,11111222,11111222' 
TCOON,ioos:station:TCOON:003:1,2014-12-01T04:06:00Z,26.8015,-97.4706,0.0,5.6,144.0,6.4,'11111222,11111222,11111222' 
TCOON,ioos:station:TCOON:003:1,2014-12-01T04:12:00Z,26.8015,-97.4706,0.0,5.7,143.0,6.5,'11111222,11111222,11111222' 
TCOON,ioos:station:TCOON:003:1,2014-12-01T04:18:00Z,26.8015,-97.4706,0.0,5.7,143.0,6.5,'1111122,1111122,1111122' 
TCOON,ioos:station:TCOON:003:1,2014-12-01T04:24:00Z,26.8015,-97.4706,0.0,5.6,145.0,6.3,'11111222,11111222,11111222' 
TCOON,ioos:station:TCOON:003:1,2014-12-01T04:30:00Z,26.8015,-97.4706,0.0,5.1,147.0,6.4,'11111222,11111222,11111222' 
TCOON,ioos:station:TCOON:003:1,2014-12-01T04:36:00Z,26.8015,-97.4706,0.0,4.7,143.0,5.7,'11111222,11111222,11111222' 
TCOON,ioos:station:TCOON:003:1,2014-12-01T04:42:00Z,26.8015,-97.4706,0.0,4.9,145.0,5.7,'11111222,11111222,11111222' 
TCOON,ioos:station:TCOON:003:1,2014-12-01T04:48:00Z,26.8015,-97.4706,0.0,4.5,144.0,5.5,'11111222,11111222,11111222' 
TCOON,ioos:station:TCOON:003:1,2014-12-01T04:54:00Z,26.8015,-97.4706,0.0,4.5,148.0,5.2,'11111222,11111222,11111222' 
TCOON,ioos:station:TCOON:003:1,2014-12-01T05:00:00Z,26.8015,-97.4706,0.0,4.2,150.0,5.1,'11111222,11111222,11111222' 
TCOON,ioos:station:TCOON:003:1,2014-12-01T05:06:00Z,26.8015,-97.4706,0.0,4.4,153.0,5.0,'11111222,11111222,11111222' 
TCOON,ioos:station:TCOON:003:1,2014-12-01T05:12:00Z,26.8015,-97.4706,0.0,4.4,153.0,5.0,'1111122,1111122,1111122' 
TCOON,ioos:station:TCOON:003:1,2014-12-01T05:18:00Z,26.8015,-97.4706,0.0,4.1,154.0,4.4,'11111222,11111222,11111222' 
TCOON,ioos:station:TCOON:003:1,2014-12-01T05:24:00Z,26.8015,-97.4706,0.0,4.6,158.0,5.4,'11111222,11111222,11111222' 
TCOON,ioos:station:TCOON:003:1,2014-12-01T05:30:00Z,26.8015,-97.4706,0.0,4.7,155.0,5.2,'11111222,11111222,11111222' 
TCOON,ioos:station:TCOON:003:1,2014-12-01T05:36:00Z,26.8015,-97.4706,0.0,4.5,155.0,5.3,'11111222,11111222,11111222' 
TCOON,ioos:station:TCOON:003:1,2014-12-01T05:42:00Z,26.8015,-97.4706,0.0,4.2,154.0,4.8,'11111222,11111222,11111222' 
TCOON,ioos:station:TCOON:003:1,2014-12-01T05:48:00Z,26.8015,-97.4706,0.0,4.0,147.0,4.6,'11111222,11111222,11111222' 
TCOON,ioos:station:TCOON:003:1,2014-12-01T05:54:00Z,26.8015,-97.4706,0.0,3.6,146.0,4.3,'11111222,11111222,11111222' 
TCOON,ioos:station:TCOON:003:1,2014-12-01T06:00:00Z,26.8015,-97.4706,0.0,3.8,148.0,4.1,'11111222,11111222,11111222' 
TCOON,ioos:station:TCOON:003:1,2014-12-01T06:06:00Z,26.8015,-97.4706,0.0,3.6,149.0,4.2,'11111222,11111222,11111222' 
TCOON,ioos:station:TCOON:003:1,2014-12-01T06:12:00Z,26.8015,-97.4706,0.0,3.8,147.0,4.4,'11111222,11111222,11111222' 
TCOON,ioos:station:TCOON:003:1,2014-12-01T06:18:00Z,26.8015,-97.4706,0.0,3.8,147.0,4.4,'1111122,1111122,1111122' 
TCOON,ioos:station:TCOON:003:1,2014-12-01T06:24:00Z,26.8015,-97.4706,0.0,3.7,142.0,4.4,'11111222,11111222,11111222' 
TCOON,ioos:station:TCOON:003:1,2014-12-01T06:30:00Z,26.8015,-97.4706,0.0,3.9,139.0,4.5,'11111222,11111222,11111222' 
TCOON,ioos:station:TCOON:003:1,2014-12-01T06:36:00Z,26.8015,-97.4706,0.0,4.5,140.0,5.0,'11111222,11111222,11111222' 
TCOON,ioos:station:TCOON:003:1,2014-12-01T06:42:00Z,26.8015,-97.4706,0.0,4.0,139.0,4.9,'11111222,11111222,11111222' 
TCOON,ioos:station:TCOON:003:1,2014-12-01T06:48:00Z,26.8015,-97.4706,0.0,3.9,138.0,4.6,'11111222,11111222,11111222' 
TCOON,ioos:station:TCOON:003:1,2014-12-01T06:54:00Z,26.8015,-97.4706,0.0,4.1,140.0,4.5,'11111222,11111222,11111222' 
TCOON,ioos:station:TCOON:003:1,2014-12-01T07:00:00Z,26.8015,-97.4706,0.0,4.3,133.0,5.0,'11111222,11111222,11111222' 
TCOON,ioos:station:TCOON:003:1,2014-12-01T07:06:00Z,26.8015,-97.4706,0.0,4.3,136.0,5.1,'11111222,11111222,11111222' 
TCOON,ioos:station:TCOON:003:1,2014-12-01T07:12:00Z,26.8015,-97.4706,0.0,4.3,138.0,4.9,'11111222,11111222,11111222' 
TCOON,ioos:station:TCOON:003:1,2014-12-01T07:18:00Z,26.8015,-97.4706,0.0,4.3,138.0,4.9,'1111122,1111122,1111122' 
TCOON,ioos:station:TCOON:003:1,2014-12-01T07:24:00Z,26.8015,-97.4706,0.0,4.2,132.0,4.7,'11111222,11111222,11111222' 
TCOON,ioos:station:TCOON:003:1,2014-12-01T07:30:00Z,26.8015,-97.4706,0.0,4.0,139.0,4.6,'11111222,11111222,11111222' 
TCOON,ioos:station:TCOON:003:1,2014-12-01T07:36:00Z,26.8015,-97.4706,0.0,4.2,137.0,4.7,'11111222,11111222,11111222' 
TCOON,ioos:station:TCOON:003:1,2014-12-01T07:42:00Z,26.8015,-97.4706,0.0,4.1,135.0,4.8,'11111222,11111222,11111222' 
TCOON,ioos:station:TCOON:003:1,2014-12-01T07:48:00Z,26.8015,-97.4706,0.0,4.0,135.0,4.6,'11111222,11111222,11111222' 
TCOON,ioos:station:TCOON:003:1,2014-12-01T07:54:00Z,26.8015,-97.4706,0.0,4.0,135.0,4.9,'11111222,11111222,11111222' 
TCOON,ioos:station:TCOON:003:1,2014-12-01T08:00:00Z,26.8015,-97.4706,0.0,4.3,132.0,4.8,'11111222,11111222,11111222' 
TCOON,ioos:station:TCOON:003:1,2014-12-01T08:06:00Z,26.8015,-97.4706,0.0,4.0,129.0,4.4,'11111222,11111222,11111222' 
TCOON,ioos:station:TCOON:003:1,2014-12-01T08:12:00Z,26.8015,-97.4706,0.0,4.0,129.0,4.4,'1111122,1111122,1111122' 
TCOON,ioos:station:TCOON:003:1,2014-12-01T08:18:00Z,26.8015,-97.4706,0.0,3.7,137.0,4.1,'11111222,11111222,11111222' 
TCOON,ioos:station:TCOON:003:1,2014-12-01T08:24:00Z,26.8015,-97.4706,0.0,3.9,133.0,4.6,'11111222,11111222,11111222' 
TCOON,ioos:station:TCOON:003:1,2014-12-01T08:30:00Z,26.8015,-97.4706,0.0,3.9,132.0,4.4,'11111222,11111222,11111222' 
TCOON,ioos:station:TCOON:003:1,2014-12-01T08:36:00Z,26.8015,-97.4706,0.0,3.9,139.0,4.5,'11111222,11111222,11111222' 
TCOON,ioos:station:TCOON:003:1,2014-12-01T08:42:00Z,26.8015,-97.4706,0.0,3.9,129.0,4.5,'11111222,11111222,11111222' 
TCOON,ioos:station:TCOON:003:1,2014-12-01T08:48:00Z,26.8015,-97.4706,0.0,4.1,130.0,4.6,'11111222,11111222,11111222' 
TCOON,ioos:station:TCOON:003:1,2014-12-01T08:54:00Z,26.8015,-97.4706,0.0,4.0,128.0,4.7,'11111222,11111222,11111222' 
TCOON,ioos:station:TCOON:003:1,2014-12-01T09:00:00Z,26.8015,-97.4706,0.0,4.1,123.0,4.8,'11111222,11111222,11111222' 
TCOON,ioos:station:TCOON:003:1,2014-12-01T09:06:00Z,26.8015,-97.4706,0.0,4.2,124.0,4.8,'11111222,11111222,11111222' 
TCOON,ioos:station:TCOON:003:1,2014-12-01T09:12:00Z,26.8015,-97.4706,0.0,3.4,113.0,5.0,'11111222,11111222,11111222' 
TCOON,ioos:station:TCOON:003:1,2014-12-01T09:18:00Z,26.8015,-97.4706,0.0,3.4,113.0,5.0,'1111122,1111122,1111122' 
TCOON,ioos:station:TCOON:003:1,2014-12-01T09:24:00Z,26.8015,-97.4706,0.0,4.4,125.0,5.1,'11111222,11111222,11111222' 
TCOON,ioos:station:TCOON:003:1,2014-12-01T09:30:00Z,26.8015,-97.4706,0.0,4.1,116.0,4.9,'11111222,11111222,11111222' 
TCOON,ioos:station:TCOON:003:1,2014-12-01T09:36:00Z,26.8015,-97.4706,0.0,4.4,123.0,5.2,'11111222,11111222,11111222' 
TCOON,ioos:station:TCOON:003:1,2014-12-01T09:42:00Z,26.8015,-97.4706,0.0,4.5,128.0,5.3,'11111222,11111222,11111222' 
TCOON,ioos:station:TCOON:003:1,2014-12-01T09:48:00Z,26.8015,-97.4706,0.0,4.6,127.0,5.2,'11111222,11111222,11111222' 
TCOON,ioos:station:TCOON:003:1,2014-12-01T09:54:00Z,26.8015,-97.4706,0.0,4.3,125.0,5.1,'11111222,11111222,11111222' 
TCOON,ioos:station:TCOON:003:1,2014-12-01T10:00:00Z,26.8015,-97.4706,0.0,4.3,125.0,5.0,'11111222,11111222,11111222' 
TCOON,ioos:station:TCOON:003:1,2014-12-01T10:06:00Z,26.8015,-97.4706,0.0,4.5,123.0,5.1,'11111222,11111222,11111222' 
TCOON,ioos:station:TCOON:003:1,2014-12-01T10:12:00Z,26.8015,-97.4706,0.0,4.5,123.0,5.1,'1111122,1111122,1111122' 
TCOON,ioos:station:TCOON:003:1,2014-12-01T10:18:00Z,26.8015,-97.4706,0.0,4.3,121.0,5.1,'11111222,11111222,11111222' 
TCOON,ioos:station:TCOON:003:1,2014-12-01T10:24:00Z,26.8015,-97.4706,0.0,4.1,119.0,5.0,'11111222,11111222,11111222' 
TCOON,ioos:station:TCOON:003:1,2014-12-01T10:30:00Z,26.8015,-97.4706,0.0,4.5,122.0,5.2,'11111222,11111222,11111222' 
TCOON,ioos:station:TCOON:003:1,2014-12-01T10:36:00Z,26.8015,-97.4706,0.0,4.3,122.0,5.1,'11111222,11111222,11111222' 
TCOON,ioos:station:TCOON:003:1,2014-12-01T10:42:00Z,26.8015,-97.4706,0.0,4.0,119.0,4.9,'11111222,11111222,11111222' 
TCOON,ioos:station:TCOON:003:1,2014-12-01T10:48:00Z,26.8015,-97.4706,0.0,4.0,122.0,4.7,'11111222,11111222,11111222' 
TCOON,ioos:station:TCOON:003:1,2014-12-01T10:54:00Z,26.8015,-97.4706,0.0,3.9,123.0,4.6,'11111222,11111222,11111222' 
TCOON,ioos:station:TCOON:003:1,2014-12-01T11:00:00Z,26.8015,-97.4706,0.0,3.6,128.0,4.5,'11111222,11111222,11111222' 
TCOON,ioos:station:TCOON:003:1,2014-12-01T11:06:00Z,26.8015,-97.4706,0.0,3.8,129.0,4.4,'11111222,11111222,11111222' 
TCOON,ioos:station:TCOON:003:1,2014-12-01T11:12:00Z,26.8015,-97.4706,0.0,3.8,129.0,4.4,'1111122,1111122,1111122' 
TCOON,ioos:station:TCOON:003:1,2014-12-01T11:18:00Z,26.8015,-97.4706,0.0,3.3,135.0,4.2,'11111222,11111222,11111222' 
TCOON,ioos:station:TCOON:003:1,2014-12-01T11:24:00Z,26.8015,-97.4706,0.0,3.7,136.0,4.1,'11111222,11111222,11111222' 
TCOON,ioos:station:TCOON:003:1,2014-12-01T11:30:00Z,26.8015,-97.4706,0.0,3.1,138.0,4.0,'11111222,11111222,11111222' 
TCOON,ioos:station:TCOON:003:1,2014-12-01T11:36:00Z,26.8015,-97.4706,0.0,3.2,145.0,3.7,'11111222,11111222,11111222' 
TCOON,ioos:station:TCOON:003:1,2014-12-01T11:42:00Z,26.8015,-97.4706,0.0,3.1,135.0,3.6,'11111222,11111222,11111222' 
TCOON,ioos:station:TCOON:003:1,2014-12-01T11:48:00Z,26.8015,-97.4706,0.0,3.0,125.0,3.3,'11111222,11111222,11111222' 
TCOON,ioos:station:TCOON:003:1,2014-12-01T11:54:00Z,26.8015,-97.4706,0.0,3.1,133.0,3.6,'11111222,11111222,11111222' 
TCOON,ioos:station:TCOON:003:1,2014-12-01T12:00:00Z,26.8015,-97.4706,0.0,2.9,129.0,3.6,'11111222,11111222,11111222' 
TCOON,ioos:station:TCOON:003:1,2014-12-01T12:06:00Z,26.8015,-97.4706,0.0,2.9,132.0,3.4,'11111222,11111222,11111222' 
TCOON,ioos:station:TCOON:003:1,2014-12-01T12:12:00Z,26.8015,-97.4706,0.0,2.9,132.0,3.4,'1111122,1111122,1111122' 
TCOON,ioos:station:TCOON:003:1,2014-12-01T12:18:00Z,26.8015,-97.4706,0.0,2.7,132.0,3.2,'11111222,11111222,11111222' 
TCOON,ioos:station:TCOON:003:1,2014-12-01T12:24:00Z,26.8015,-97.4706,0.0,2.8,117.0,3.7,'11111222,11111222,11111222' 
TCOON,ioos:station:TCOON:003:1,2014-12-01T12:30:00Z,26.8015,-97.4706,0.0,2.6,125.0,3.0,'11111222,11111222,11111222' 
TCOON,ioos:station:TCOON:003:1,2014-12-01T12:36:00Z,26.8015,-97.4706,0.0,2.2,99.0,3.1,'11111222,11111222,11111222' 
TCOON,ioos:station:TCOON:003:1,2014-12-01T12:42:00Z,26.8015,-97.4706,0.0,1.8,115.0,2.1,'11111222,11111222,11111222' 
TCOON,ioos:station:TCOON:003:1,2014-12-01T12:48:00Z,26.8015,-97.4706,0.0,2.2,123.0,2.4,'11111222,11111222,11111222' 
TCOON,ioos:station:TCOON:003:1,2014-12-01T12:54:00Z,26.8015,-97.4706,0.0,1.7,137.0,2.4,'11111222,11111222,11111222' 
TCOON,ioos:station:TCOON:003:1,2014-12-01T13:00:00Z,26.8015,-97.4706,0.0,2.0,127.0,2.2,'11111222,11111222,11111222' 
TCOON,ioos:station:TCOON:003:1,2014-12-01T13:06:00Z,26.8015,-97.4706,0.0,1.3,134.0,2.0,'11111222,11111222,11111222' 
TCOON,ioos:station:TCOON:003:1,2014-12-01T13:12:00Z,26.8015,-97.4706,0.0,1.3,134.0,2.0,'1111122,1111122,1111122' 
TCOON,ioos:station:TCOON:003:1,2014-12-01T13:18:00Z,26.8015,-97.4706,0.0,1.5,147.0,1.8,'11111222,11111222,11111222' 
TCOON,ioos:station:TCOON:003:1,2014-12-01T13:24:00Z,26.8015,-97.4706,0.0,1.3,131.0,1.6,'11111222,11111222,11111222' 
TCOON,ioos:station:TCOON:003:1,2014-12-01T13:30:00Z,26.8015,-97.4706,0.0,0.9,134.0,1.4,'11111222,11111222,11111222' 
TCOON,ioos:station:TCOON:003:1,2014-12-01T13:36:00Z,26.8015,-97.4706,0.0,0.7,132.0,1.1,'11111222,11111222,11111222' 
TCOON,ioos:station:TCOON:003:1,2014-12-01T13:42:00Z,26.8015,-97.4706,0.0,1.7,127.0,2.0,'11111222,11111222,11111222' 
TCOON,ioos:station:TCOON:003:1,2014-12-01T13:48:00Z,26.8015,-97.4706,0.0,1.6,112.0,1.8,'11111222,11111222,11111222' 
TCOON,ioos:station:TCOON:003:1,2014-12-01T13:54:00Z,26.8015,-97.4706,0.0,1.2,128.0,1.7,'11111222,11111222,11111222' 
TCOON,ioos:station:TCOON:003:1,2014-12-01T14:00:00Z,26.8015,-97.4706,0.0,1.5,130.0,1.6,'11111222,11111222,11111222' 
TCOON,ioos:station:TCOON:003:1,2014-12-01T14:06:00Z,26.8015,-97.4706,0.0,1.0,95.0,1.8,'11111222,11111222,11111222' 
TCOON,ioos:station:TCOON:003:1,2014-12-01T14:12:00Z,26.8015,-97.4706,0.0,0.7,92.0,1.4,'11111222,11111222,11111222' 
TCOON,ioos:station:TCOON:003:1,2014-12-01T14:18:00Z,26.8015,-97.4706,0.0,1.0,100.0,1.4,'11111222,11111222,11111222' 
TCOON,ioos:station:TCOON:003:1,2014-12-01T14:24:00Z,26.8015,-97.4706,0.0,0.8,106.0,1.1,'11111222,11111222,11111222' 
TCOON,ioos:station:TCOON:003:1,2014-12-01T14:30:00Z,26.8015,-97.4706,0.0,1.2,100.0,1.4,'11111222,11111222,11111222' 
TCOON,ioos:station:TCOON:003:1,2014-12-01T14:36:00Z,26.8015,-97.4706,0.0,1.4,84.0,1.6,'11111222,11111222,11111222' 
TCOON,ioos:station:TCOON:003:1,2014-12-01T14:42:00Z,26.8015,-97.4706,0.0,1.3,92.0,1.7,'11111222,11111222,11111222' 
TCOON,ioos:station:TCOON:003:1,2014-12-01T14:48:00Z,26.8015,-97.4706,0.0,1.3,99.0,1.8,'11111222,11111222,11111222' 
TCOON,ioos:station:TCOON:003:1,2014-12-01T14:54:00Z,26.8015,-97.4706,0.0,1.8,107.0,2.2,'11111222,11111222,11111222' 
TCOON,ioos:station:TCOON:003:1,2014-12-01T15:00:00Z,26.8015,-97.4706,0.0,2.1,100.0,2.6,'11111222,11111222,11111222' 
TCOON,ioos:station:TCOON:003:1,2014-12-01T15:06:00Z,26.8015,-97.4706,0.0,2.3,110.0,2.5,'11111222,11111222,11111222' 
TCOON,ioos:station:TCOON:003:1,2014-12-01T15:12:00Z,26.8015,-97.4706,0.0,2.8,106.0,3.3,'11111222,11111222,11111222' 
TCOON,ioos:station:TCOON:003:1,2014-12-01T15:18:00Z,26.8015,-97.4706,0.0,2.8,117.0,3.2,'11111222,11111222,11111222' 
TCOON,ioos:station:TCOON:003:1,2014-12-01T15:24:00Z,26.8015,-97.4706,0.0,3.0,120.0,3.5,'11111222,11111222,11111222' 
TCOON,ioos:station:TCOON:003:1,2014-12-01T15:30:00Z,26.8015,-97.4706,0.0,2.6,128.0,3.4,'11111222,11111222,11111222' 
TCOON,ioos:station:TCOON:003:1,2014-12-01T15:36:00Z,26.8015,-97.4706,0.0,2.4,133.0,3.0,'11111222,11111222,11111222' 
TCOON,ioos:station:TCOON:003:1,2014-12-01T15:42:00Z,26.8015,-97.4706,0.0,2.4,123.0,2.9,'11111222,11111222,11111222' 
TCOON,ioos:station:TCOON:003:1,2014-12-01T15:48:00Z,26.8015,-97.4706,0.0,2.5,117.0,3.0,'11111222,11111222,11111222' 
TCOON,ioos:station:TCOON:003:1,2014-12-01T15:54:00Z,26.8015,-97.4706,0.0,2.3,128.0,3.0,'11111222,11111222,11111222' 
TCOON,ioos:station:TCOON:003:1,2014-12-01T16:00:00Z,26.8015,-97.4706,0.0,2.6,126.0,3.0,'11111222,11111222,11111222' 
TCOON,ioos:station:TCOON:003:1,2014-12-01T16:06:00Z,26.8015,-97.4706,0.0,2.7,116.0,3.2,'11111222,11111222,11111222' 
TCOON,ioos:station:TCOON:003:1,2014-12-01T16:12:00Z,26.8015,-97.4706,0.0,2.7,124.0,3.2,'11111222,11111222,11111222' 
TCOON,ioos:station:TCOON:003:1,2014-12-01T16:18:00Z,26.8015,-97.4706,0.0,2.4,128.0,3.0,'11111222,11111222,11111222' 
TCOON,ioos:station:TCOON:003:1,2014-12-01T16:24:00Z,26.8015,-97.4706,0.0,2.3,118.0,2.9,'11111222,11111222,11111222' 
TCOON,ioos:station:TCOON:003:1,2014-12-01T16:30:00Z,26.8015,-97.4706,0.0,2.4,135.0,3.0,'11111222,11111222,11111222' 
TCOON,ioos:station:TCOON:003:1,2014-12-01T16:36:00Z,26.8015,-97.4706,0.0,2.4,134.0,3.0,'11111222,11111222,11111222' 
TCOON,ioos:station:TCOON:003:1,2014-12-01T16:42:00Z,26.8015,-97.4706,0.0,2.6,132.0,3.1,'11111222,11111222,11111222' 
TCOON,ioos:station:TCOON:003:1,2014-12-01T16:48:00Z,26.8015,-97.4706,0.0,2.6,143.0,3.1,'11111222,11111222,11111222' 
TCOON,ioos:station:TCOON:003:1,2014-12-01T16:54:00Z,26.8015,-97.4706,0.0,2.3,148.0,2.9,'11111222,11111222,11111222' 
TCOON,ioos:station:TCOON:003:1,2014-12-01T17:00:00Z,26.8015,-97.4706,0.0,2.5,146.0,2.8,'11111222,11111222,11111222' 
TCOON,ioos:station:TCOON:003:1,2014-12-01T17:06:00Z,26.8015,-97.4706,0.0,1.9,157.0,2.7,'11111222,11111222,11111222' 
TCOON,ioos:station:TCOON:003:1,2014-12-01T17:12:00Z,26.8015,-97.4706,0.0,1.8,163.0,2.2,'11111222,11111222,11111222' 
TCOON,ioos:station:TCOON:003:1,2014-12-01T17:18:00Z,26.8015,-97.4706,0.0,1.9,142.0,2.3,'11111222,11111222,11111222' 
TCOON,ioos:station:TCOON:003:1,2014-12-01T17:24:00Z,26.8015,-97.4706,0.0,2.3,138.0,3.3,'11111222,11111222,11111222' 
TCOON,ioos:station:TCOON:003:1,2014-12-01T17:30:00Z,26.8015,-97.4706,0.0,1.9,160.0,2.7,'11111222,11111222,11111222' 
TCOON,ioos:station:TCOON:003:1,2014-12-01T17:36:00Z,26.8015,-97.4706,0.0,2.0,154.0,2.4,'11111222,11111222,11111222' 
TCOON,ioos:station:TCOON:003:1,2014-12-01T17:42:00Z,26.8015,-97.4706,0.0,3.0,132.0,3.5,'11111222,11111222,11111222' 
TCOON,ioos:station:TCOON:003:1,2014-12-01T17:48:00Z,26.8015,-97.4706,0.0,3.1,136.0,3.9,'11111222,11111222,11111222' 
TCOON,ioos:station:TCOON:003:1,2014-12-01T17:54:00Z,26.8015,-97.4706,0.0,3.6,137.0,4.2,'11111222,11111222,11111222' 
TCOON,ioos:station:TCOON:003:1,2014-12-01T18:00:00Z,26.8015,-97.4706,0.0,3.9,140.0,4.6,'11111222,11111222,11111222' 
TCOON,ioos:station:TCOON:003:1,2014-12-01T18:06:00Z,26.8015,-97.4706,0.0,4.4,132.0,5.8,'11111222,11111222,11111222' 
TCOON,ioos:station:TCOON:003:1,2014-12-01T18:12:00Z,26.8015,-97.4706,0.0,4.6,134.0,6.0,'11111222,11111222,11111222' 
TCOON,ioos:station:TCOON:003:1,2014-12-01T18:18:00Z,26.8015,-97.4706,0.0,4.7,132.0,5.6,'11111222,11111222,11111222' 
TCOON,ioos:station:TCOON:003:1,2014-12-01T18:24:00Z,26.8015,-97.4706,0.0,5.1,126.0,5.9,'11111222,11111222,11111222' 
TCOON,ioos:station:TCOON:003:1,2014-12-01T18:30:00Z,26.8015,-97.4706,0.0,4.7,125.0,5.8,'11111222,11111222,11111222' 
TCOON,ioos:station:TCOON:003:1,2014-12-01T18:36:00Z,26.8015,-97.4706,0.0,4.9,131.0,6.0,'11111222,11111222,11111222' 
TCOON,ioos:station:TCOON:003:1,2014-12-01T18:42:00Z,26.8015,-97.4706,0.0,4.3,128.0,5.6,'11111222,11111222,11111222' 
TCOON,ioos:station:TCOON:003:1,2014-12-01T18:48:00Z,26.8015,-97.4706,0.0,4.5,128.0,5.4,'11111222,11111222,11111222' 
TCOON,ioos:station:TCOON:003:1,2014-12-01T18:54:00Z,26.8015,-97.4706,0.0,4.1,131.0,5.2,'11111222,11111222,11111222' 
TCOON,ioos:station:TCOON:003:1,2014-12-01T19:00:00Z,26.8015,-97.4706,0.0,4.1,131.0,5.2,'1111122,1111122,1111122' 
TCOON,ioos:station:TCOON:003:1,2014-12-01T19:06:00Z,26.8015,-97.4706,0.0,4.7,128.0,5.3,'11111222,11111222,11111222' 
TCOON,ioos:station:TCOON:003:1,2014-12-01T19:12:00Z,26.8015,-97.4706,0.0,4.8,125.0,5.6,'11111222,11111222,11111222' 
TCOON,ioos:station:TCOON:003:1,2014-12-01T19:18:00Z,26.8015,-97.4706,0.0,4.8,125.0,5.6,'1111122,1111122,1111122' 
TCOON,ioos:station:TCOON:003:1,2014-12-01T19:24:00Z,26.8015,-97.4706,0.0,5.0,125.0,5.6,'11111222,11111222,11111222' 
TCOON,ioos:station:TCOON:003:1,2014-12-01T19:30:00Z,26.8015,-97.4706,0.0,4.9,119.0,6.4,'11111222,11111222,11111222' 
TCOON,ioos:station:TCOON:003:1,2014-12-01T19:36:00Z,26.8015,-97.4706,0.0,5.3,118.0,6.1,'11111222,11111222,11111222' 
TCOON,ioos:station:TCOON:003:1,2014-12-01T19:42:00Z,26.8015,-97.4706,0.0,4.5,122.0,5.9,'11111222,11111222,11111222' 
TCOON,ioos:station:TCOON:003:1,2014-12-01T19:48:00Z,26.8015,-97.4706,0.0,5.3,118.0,6.2,'11111222,11111222,11111222' 
TCOON,ioos:station:TCOON:003:1,2014-12-01T19:54:00Z,26.8015,-97.4706,0.0,5.2,125.0,6.2,'11111222,11111222,11111222' 
TCOON,ioos:station:TCOON:003:1,2014-12-01T20:00:00Z,26.8015,-97.4706,0.0,5.2,126.0,5.8,'11111222,11111222,11111222' 
TCOON,ioos:station:TCOON:003:1,2014-12-01T20:06:00Z,26.8015,-97.4706,0.0,5.3,126.0,6.2,'11111222,11111222,11111222' 
TCOON,ioos:station:TCOON:003:1,2014-12-01T20:12:00Z,26.8015,-97.4706,0.0,4.9,129.0,6.1,'11111222,11111222,11111222' 
TCOON,ioos:station:TCOON:003:1,2014-12-01T20:18:00Z,26.8015,-97.4706,0.0,4.9,129.0,6.1,'1111122,1111122,1111122' 